This demonstration page uses our WeatherBlox Daily Observations layout. Learn more.

Left ArrowRight Arrow

31.84235, -102.49876

Hourly Observations for March 18, 2018

Temp ( °F °C ) Dew Point ( °F °C ) Humidity (%) Winds ( mph kmh ) Pressure ( in mb ) Visibility ( mi km ) Precip ( " mm )
12:53 am 00:53 Clear 62 16.7 30 -1.1 30 30 E 3 6 29.77 1008 10 16 0.00 0.00
1:53 am 01:53 Mostly Cloudy 63 17.2 34 1.1 34 34 ESE 10 17 29.75 1008 10 16 0.00 0.00
2:53 am 02:53 Cloudy with Light Rain 61 16.1 44 6.7 54 54 SSE 6 9 29.76 1008 10 16 0.00 0.03
3:53 am 03:53 Cloudy 62 16.7 45 7.2 54 54 SSE 7 11 29.75 1008 10 16 0.00 0.03
4:53 am 04:53 Cloudy 63 17.2 43 6.1 48 48 Calm 29.74 1007 10 16 0.00 0.00
5:53 am 05:53 Cloudy 62 16.7 43 6.1 50 50 ESE 5 7 29.73 1007 10 16 0.00 0.00
6:53 am 06:53 Cloudy 60 15.6 37 2.8 42 42 S 7 11 29.74 1007 10 16 0.00 0.00
7:53 am 07:53 Cloudy 61 16.1 34 1.1 36 36 SW 6 9 29.75 1008 10 16 0.00 0.00
8:53 am 08:53 Mostly Cloudy 63 17.2 34 1.1 34 34 WSW 9 15 29.77 1008 10 16 0.00 0.00
9:53 am 09:53 Sunny 68 20 31 -0.6 25 25 W 16 26 29.78 1008 10 16 0.00 0.00
10:21 am 10:21 Mostly Sunny 70 21.1 30 -1.1 23 23 W 18 30 29.74 1007 10 16 0.00 0.00
10:53 am 10:53 Sunny 71 21.7 30 -1.1 22 22 WSW 18 30 29.78 1008 10 16 0.00 0.00
11:53 am 11:53 Sunny 72 22.2 29 -1.7 20 20 W 25 41 29.78 1008 9 14 0.00 0.00
12:53 pm 12:53 Sunny 75 23.9 27 -2.8 17 17 WSW 21 33 29.76 1008 10 16 0.00 0.00
1:53 pm 13:53 Sunny 75 23.9 18 -7.8 11 11 W 26 43 29.75 1007 9 14 0.00 0.00
2:53 pm 14:53 Sunny 75 23.9 19 -7.2 12 12 W 25 41 29.72 1006 9 14 0.00 0.00
3:53 pm 15:53 Sunny 78 25.6 18 -7.8 10 10 WSW 23 37 29.67 1005 8 13 0.00 0.00
4:23 pm 16:23 Hazy 78 25.6 17 -8.3 10 10 WSW 30 48 29.59 1002 5 8 0.00 0.00
4:53 pm 16:53 Sunny 79 26.1 17 -8.3 10 10 WSW 24 39 29.62 1003 10 16 0.00 0.00
5:53 pm 17:53 Sunny 79 26.1 12 -11.1 8 8 W 30 48 29.61 1003 7 11 0.00 0.00
6:53 pm 18:53 Sunny 78 25.6 13 -10.6 8 8 W 24 39 29.61 1003 8 13 0.00 0.00
7:53 pm 19:53 Sunny 74 23.3 12 -11.1 9 9 W 16 26 29.62 1003 10 16 0.00 0.00
8:53 pm 20:53 Clear 72 22.2 7 -13.9 8 8 W 20 31 29.65 1004 10 16 0.00 0.00
9:53 pm 21:53 Clear 70 21.1 4 -15.6 7 7 W 22 35 29.67 1005 10 16 0.00 0.00
10:53 pm 22:53 Clear 68 20 5 -15 8 8 WNW 20 31 29.68 1005 10 16 0.00 0.00
11:53 pm 23:53 Clear 63 17.2 14 -10 15 15 NW 15 24 29.70 1006 10 16 0.00 0.00

Powered by AerisWeather